Location: Unspecified
(0.0000°N, 0.0000°E)
Time: 20:27:01
(UTC+02:00)

AO-40 - Visible Passes

Search period start: 28 July 2014 00:00
Search period end: 07 August 2014 00:00
Orbit: 1104 x 58716 km, 8.3° (Epoch: 26 July)

Date Brightness Start Highest point End Pass type
(mag) Time Alt. Az. Time Alt. Az. Time Alt. Az.
27 Jul ? 23:59:34 45° ESE 04:33:04 82° S 11:04:43 10° W visible
28 Jul ? 23:32:11 10° E 06:06:12 85° S 12:07:52 10° ENE visible
30 Jul ? 01:05:04 10° E 05:16:31 44° E 06:46:00 10° E visible
31 Jul ? 03:07:52 10° W 04:42:02 49° WSW 09:24:09 10° W visible
31 Jul ? 21:48:06 10° W 04:24:59 82° S 10:56:27 10° W visible
01 Aug ? 23:23:40 10° E 05:58:30 85° S 11:40:13 10° ENE visible
03 Aug ? 00:57:50 10° E 04:48:39 40° E 06:16:06 10° E visible
04 Aug ? 02:38:39 10° W 04:25:49 52° WSW 09:16:18 10° W visible
04 Aug ? 21:20:29 10° W 04:16:42 83° S 10:48:23 10° W visible
05 Aug ? 23:15:01 10° E 05:51:06 86° S 11:12:32 10° ENE visible
